Wind_Speed
6 6 7 7 6 5 4 3 3 3 4 4 5 5 6 7 8 10 11 13 14 15 16 17 18 18 19 19 18 17 16 15 13 12 11 11 10 9 8 8 8 8
7 6 6 7 6 6 5 3 2 2 3 4 4 3 4 4 5 7 8 9 11 12 13 14 15 16 16 17 17 17 16 15 14 13 12 11 10 9 9 8 7 7
10 8 7 7 6 6 5 4 3 3 3 3 4 3 3 3 3 4 5 6 7 8 9 11 12 12 13 14 14 15 15 15 14 13 13 12 11 10 9 8 8 7
15 12 10 8 8 7 5 4 4 3 3 4 4 4 3 3 2 2 2 3 4 5 6 7 8 9 10 11 12 12 13 13 13 13 13 12 11 10 9 8 7 7
18 16 13 11 10 8 6 5 5 4 4 5 5 5 5 5 4 3 2 1 2 3 3 4 5 6 7 8 9 10 11 11 12 12 12 12 11 10 9 8 8 7
20 19 17 15 13 11 10 8 7 6 6 6 7 7 7 6 6 5 4 3 2 1 1 2 2 3 4 5 6 7 9 10 11 11 12 12 11 11 10 9 8 8
20 21 20 19 17 15 14 12 10 9 8 8 9 9 8 8 8 7 6 5 4 3 2 1 0 0 1 2 4 5 6 8 9 10 11 11 11 11 10 10 9 9
20 21 21 22 21 19 18 16 14 13 12 11 11 11 10 10 10 9 9 8 7 6 5 4 3 2 2 2 3 3 5 6 8 9 10 10 11 11 11 11 10 10
22 20 20 21 22 22 21 19 18 17 16 14 14 14 13 12 12 12 11 11 10 9 8 7 6 5 5 4 4 4 5 5 7 8 9 10 11 11 11 11 11 11
23 22 21 20 20 22 22 22 21 20 19 18 17 17 16 15 14 14 14 13 13 12 11 10 9 8 7 7 7 6 6 6 7 8 9 10 11 12 12 12 12 12
25 24 23 22 21 22 22 22 22 22 21 20 20 19 19 18 17 17 16 16 15 15 14 13 12 11 10 9 9 9 8 8 8 9 10 11 11 12 13 13 13 13
27 26 26 25 23 21 21 21 22 22 22 22 22 22 21 21 20 19 19 19 18 18 17 15 14 13 12 11 11 11 10 10 10 10 11 11 12 13 13 14 14 14
30 29 28 27 24 22 22 21 21 21 22 22 23 23 23 23 23 22 21 22 21 20 19 19 17 16 14 13 13 12 12 12 12 11 12 12 13 13 14 14 14 14
32 31 31 29 27 25 25 24 22 21 21 22 22 23 24 24 24 25 24 24 24 23 22 21 20 18 17 16 15 14 14 13 13 13 13 13 13 14 14 14 15 14
34 33 33 33 30 29 30 28 26 24 21 21 21 21 22 24 25 26 27 27 27 26 25 24 22 21 19 18 17 16 15 14 14 13 13 14 14 14 14 14 14 14
36 36 36 36 34 33 34 32 30 26 22 21 21 20 20 21 21 22 24 27 28 28 27 26 25 23 21 20 19 18 17 16 15 14 14 14 14 14 14 14 13 13
38 39 39 39 37 35 34 34 33 31 27 25 24 22 21 20 19 18 18 21 25 28 29 28 26 24 22 21 19 18 18 17 16 15 15 15 15 14 13 13 12 12
40 42 42 41 38 36 35 34 35 35 33 30 27 25 23 22 21 19 18 18 21 24 26 27 26 25 23 21 20 19 19 18 17 16 16 15 15 14 13 12 11 10
40 43 45 42 39 38 37 36 36 36 36 35 31 27 26 26 26 24 22 21 20 20 20 22 24 25 24 22 20 20 19 19 18 17 17 16 15 14 13 11 10 9
40 44 46 44 41 41 40 39 38 37 36 36 34 31 29 30 31 30 28 26 23 20 19 19 21 22 23 22 21 21 20 20 19 18 18 17 16 15 14 12 11 10
46 48 47 46 44 43 41 41 41 40 38 37 36 34 34 35 36 36 33 31 30 26 23 22 21 20 19 19 19 20 20 20 19 18 17 16 16 15 14 13 12 11
50 52 49 47 46 45 43 42 42 41 40 38 37 37 37 38 40 39 36 35 34 32 28 26 24 21 18 17 17 18 19 19 18 17 16 15 15 14 13 13 13 12
53 55 53 50 49 48 45 43 41 39 39 40 40 40 40 41 42 42 40 38 36 35 31 27 23 20 18 16 15 15 17 18 19 18 18 16 15 14 14 13 13 13
56 57 57 54 53 51 49 45 42 39 38 38 39 41 42 43 44 45 43 40 38 37 35 31 25 21 19 18 17 16 16 17 18 19 19 18 16 14 15 15 15 15
59 60 61 59 57 56 53 50 47 44 40 36 36 38 39 42 45 46 45 42 40 39 38 36 31 25 22 21 19 18 18 18 18 19 20 19 16 15 16 16 17 17
63 63 64 63 61 60 59 56 53 50 46 38 33 34 38 42 44 46 46 43 42 41 41 38 34 29 26 24 22 22 21 21 21 22 22 20 19 19 18 18 19 19
Wind_Direction
167 148 143 139 132 128 118 104 95 91 92 91 79 69 62 55 51 53 56 55 56 57 56 55 55 55 55 54 53 53 53 53 53 55 57 58 60 61 62 65 67 70
200 185 169 157 148 143 140 138 134 126 119 115 108 97 87 72 57 55 57 59 59 59 57 56 54 53 52 52 52 51 50 50 50 51 52 55 56 56 56 56 55 56
214 209 198 182 167 159 155 158 168 173 163 148 144 140 130 113 86 67 59 61 63 63 60 58 55 52 49 48 48 48 47 46 45 46 46 48 49 51 51 51 50 49
216 218 215 204 190 182 178 179 188 198 200 188 178 175 172 166 151 121 80 69 69 67 64 61 57 53 48 44 42 41 41 41 40 40 40 40 40 40 41 42 43 43
216 220 219 214 208 207 211 212 212 217 222 217 209 201 195 194 196 190 173 134 91 77 72 67 61 54 47 42 37 34 32 33 33 33 33 33 32 31 30 29 29 30
218 219 219 217 217 220 225 227 227 230 234 235 229 221 215 213 213 214 215 218 210 159 110 83 66 56 44 37 31 27 22 21 23 24 24 24 23 22 20 17 17 15
224 221 220 220 219 221 225 231 234 234 238 243 240 235 232 228 225 226 227 230 234 230 221 216 233 359 13 16 15 13 11 9 11 13 13 14 13 12 10 7 6 4
237 228 224 223 223 223 225 229 234 236 238 242 244 244 241 237 235 233 234 237 241 242 240 239 245 260 282 308 328 340 348 353 356 358 360 1 1 0 360 358 357 356
250 243 234 228 227 227 229 232 235 240 242 243 246 247 246 244 242 240 238 240 243 245 246 246 248 255 266 279 293 303 318 330 338 343 345 347 348 349 350 350 348 348
252 252 248 241 235 232 232 235 239 244 248 249 249 249 249 247 246 245 244 242 244 247 248 249 251 254 259 269 278 287 296 306 317 325 330 333 336 338 340 341 341 341
249 251 251 247 242 237 235 237 241 246 252 254 255 253 251 250 249 248 247 246 246 247 249 251 251 253 256 263 271 279 286 292 300 310 316 321 325 328 331 332 334 334
246 248 251 250 248 245 241 239 240 244 249 254 257 257 254 253 251 251 250 250 250 249 250 251 251 253 255 259 265 272 279 285 291 299 306 312 316 319 322 325 326 327
243 246 250 251 252 252 250 247 244 243 245 249 255 258 258 256 255 253 253 253 253 253 252 252 253 254 256 258 262 267 273 280 287 294 300 305 309 312 315 318 319 321
242 247 248 247 248 249 250 251 249 245 243 243 247 252 256 256 255 253 254 255 256 256 255 256 257 258 260 262 265 268 272 278 284 292 297 301 305 308 310 312 314 316
241 245 247 246 244 242 243 246 247 246 244 242 245 250 252 253 252 250 250 252 255 258 258 259 260 261 264 266 269 272 276 279 285 290 295 298 302 305 307 309 310 313
239 242 245 244 243 241 240 242 244 245 246 246 246 249 253 253 253 252 250 249 251 254 257 260 262 264 267 270 272 275 278 281 285 288 291 294 297 299 301 303 306 309
236 239 242 242 242 243 242 242 244 245 248 249 246 247 251 255 258 261 260 254 251 252 254 256 258 261 266 270 272 274 276 278 280 281 283 285 287 289 291 293 298 302
236 237 239 239 240 242 242 243 244 245 247 249 250 251 253 257 260 264 267 265 259 258 258 258 258 258 260 265 268 270 272 273 275 275 275 276 277 278 280 281 284 288
237 236 236 237 237 238 241 242 243 245 247 247 248 252 254 257 259 260 261 264 266 268 271 272 268 263 259 260 262 266 270 272 274 275 275 276 277 277 274 271 269 269
235 235 235 236 234 235 238 240 242 246 247 245 245 247 251 256 259 259 260 262 267 274 282 284 280 272 265 260 257 259 263 267 270 273 276 278 280 280 279 275 268 262
235 234 234 234 232 232 236 239 242 245 245 245 245 247 252 256 257 258 260 262 265 271 279 286 288 285 279 271 261 257 259 262 264 267 270 273 276 278 278 277 274 270
234 232 231 231 229 231 235 238 241 244 245 246 246 248 254 257 255 255 258 261 262 265 271 278 284 287 286 279 269 263 263 265 267 269 269 270 272 273 274 273 272 269
232 230 229 229 229 232 233 234 237 243 246 249 250 250 253 254 253 253 256 259 259 262 266 271 276 281 280 271 263 259 260 264 267 269 272 271 270 271 273 272 268 263
230 228 226 227 230 231 231 231 234 238 244 249 251 250 251 252 251 252 254 256 256 258 263 266 269 275 274 264 253 247 248 253 259 264 268 268 267 266 267 268 266 261
229 228 226 227 229 230 230 231 232 233 238 245 250 250 249 249 248 248 250 252 253 254 258 261 263 268 272 264 254 246 242 243 249 257 263 266 266 262 259 258 257 255
230 229 228 228 230 230 230 231 231 231 232 237 244 247 245 244 246 247 247 249 250 251 254 257 259 263 267 265 259 252 245 240 241 247 254 261 264 262 257 251 248 249
Height
11026 11025 11025 11025 11025 11025 11025 11025 11025 11025 11025 11025 11025 11025 11025 11025 11024 11024 11024 11024 11023 11023 11023 11023 11023 11023 11023 11023 11022 11022 11022 11022 11022 11021 11021 11020 11020 11020 11019 11018 11018 11018
11026 11026 11025 11025 11025 11025 11025 11025 11025 11025 11025 11025 11025 11025 11025 11025 11025 11025 11025 11024 11024 11024 11024 11024 11024 11024 11024 11024 11023 11023 11023 11023 11023 11022 11022 11022 11021 11021 11020 11020 11019 11019
11025 11025 11025 11025 11025 11025 11024 11025 11025 11025 11025 11025 11025 11025 11025 11025 11025 11025 11025 11025 11025 11025 11025 11024 11025 11025 11025 11024 11024 11024 11024 11024 11024 11023 11023 11023 11022 11022 11021 11021 11021 11020
11024 11025 11025 11025 11025 11024 11024 11024 11024 11024 11024 11024 11025 11025 11025 11025 11025 11025 11025 11025 11025 11025 11025 11025 11025 11025 11025 11025 11025 11025 11025 11025 11024 11024 11024 11024 11023 11023 11022 11022 11022 11021
11023 11023 11024 11025 11024 11024 11024 11024 11024 11024 11024 11024 11024 11024 11024 11024 11025 11025 11025 11025 11025 11025 11025 11025 11025 11025 11025 11025 11025 11025 11025 11025 11025 11025 11025 11024 11024 11024 11023 11023 11022 11022
11021 11022 11023 11023 11023 11023 11023 11024 11024 11024 11023 11023 11023 11023 11023 11024 11024 11024 11024 11024 11025 11025 11025 11025 11025 11025 11025 11025 11025 11025 11025 11025 11025 11025 11025 11025 11025 11024 11024 11023 11023 11023
11020 11020 11020 11021 11022 11022 11022 11023 11023 11023 11023 11023 11022 11022 11022 11023 11023 11023 11023 11024 11024 11024 11025 11025 11025 11025 11025 11025 11025 11025 11025 11025 11025 11026 11025 11025 11025 11025 11024 11024 11024 11023
11019 11018 11018 11019 11020 11020 11021 11021 11022 11022 11022 11022 11022 11022 11022 11022 11022 11022 11023 11023 11023 11023 11024 11024 11025 11025 11025 11024 11025 11025 11025 11025 11025 11026 11026 11025 11025 11025 11025 11024 11024 11024
11019 11018 11017 11017 11017 11018 11019 11020 11020 11021 11021 11022 11022 11021 11021 11021 11021 11022 11022 11022 11022 11023 11023 11023 11024 11024 11024 11024 11024 11024 11024 11025 11025 11025 11025 11025 11025 11025 11025 11024 11024 11024
11018 11018 11017 11016 11015 11016 11017 11018 11018 11019 11020 11021 11021 11021 11021 11021 11021 11021 11021 11022 11022 11022 11022 11023 11023 11023 11023 11023 11023 11024 11024 11024 11025 11025 11025 11025 11025 11025 11025 11024 11024 11024
11017 11016 11016 11015 11014 11014 11014 11015 11016 11017 11018 11019 11020 11020 11021 11021 11021 11021 11021 11021 11021 11021 11021 11022 11022 11022 11022 11022 11023 11023 11023 11023 11024 11024 11024 11025 11025 11024 11024 11024 11024 11024
11014 11013 11013 11013 11013 11013 11013 11013 11013 11014 11016 11017 11018 11019 11020 11020 11020 11021 11021 11021 11021 11021 11021 11021 11021 11021 11021 11021 11022 11022 11022 11022 11023 11023 11024 11024 11024 11024 11024 11024 11024 11024
11010 11010 11011 11012 11013 11013 11013 11012 11012 11012 11013 11014 11016 11017 11019 11019 11020 11020 11020 11020 11020 11020 11020 11020 11020 11020 11020 11020 11021 11021 11021 11021 11022 11023 11023 11023 11023 11023 11023 11023 11023 11023
11006 11007 11008 11010 11011 11011 11011 11011 11011 11011 11011 11011 11012 11013 11015 11017 11018 11018 11019 11019 11019 11020 11020 11020 11020 11020 11020 11020 11020 11020 11020 11021 11021 11022 11022 11022 11023 11023 11023 11023 11023 11023
11002 11004 11005 11006 11007 11007 11008 11008 11009 11009 11009 11009 11009 11009 11011 11012 11013 11014 11015 11016 11017 11018 11019 11019 11020 11020 11020 11020 11020 11020 11020 11020 11020 11021 11021 11021 11022 11022 11022 11022 11022 11022
10998 10999 11000 11002 11003 11003 11004 11005 11006 11007 11008 11007 11007 11007 11007 11008 11008 11008 11009 11011 11012 11014 11016 11017 11018 11019 11020 11020 11020 11019 11019 11019 11019 11020 11020 11020 11020 11021 11021 11021 11021 11021
10993 10994 10995 10997 10999 11000 11001 11002 11003 11005 11006 11006 11005 11004 11004 11005 11005 11005 11006 11007 11008 11009 11011 11013 11015 11017 11018 11018 11018 11018 11017 11017 11017 11017 11018 11018 11018 11019 11019 11019 11020 11020
10987 10988 10990 10992 10995 10997 10998 11000 11001 11002 11003 11004 11003 11002 11003 11003 11004 11004 11005 11005 11005 11006 11008 11010 11012 11014 11015 11015 11016 11016 11016 11016 11016 11016 11016 11016 11016 11016 11017 11017 11018 11018
10983 10984 10985 10988 10991 10992 10994 10996 10997 10998 10999 11001 11001 11001 11001 11002 11002 11003 11004 11004 11004 11005 11006 11008 11010 11011 11012 11013 11014 11014 11014 11015 11015 11015 11015 11015 11015 11016 11016 11016 11016 11016
10979 10979 10981 10984 10987 10988 10989 10991 10993 10994 10995 10997 10998 10998 10999 11000 11001 11001 11002 11002 11002 11004 11005 11007 11008 11009 11010 11011 11011 11012 11012 11013 11013 11014 11014 11015 11015 11015 11016 11016 11016 11016
10974 10975 10977 10980 10982 10983 10985 10986 10988 10989 10991 10993 10994 10995 10996 10997 10998 10998 11000 11000 11001 11002 11004 11006 11007 11009 11010 11011 11011 11011 11010 11010 11010 11011 11012 11013 11013 11014 11015 11016 11016 11016
10969 10971 10973 10975 10977 10978 10980 10982 10984 10985 10987 10988 10990 10991 10992 10994 10994 10995 10997 10998 10999 11000 11002 11005 11007 11008 11010 11011 11012 11012 11011 11010 11009 11010 11010 11011 11012 11012 11013 11014 11015 11015
10964 10966 10968 10970 10971 10973 10975 10977 10980 10981 10983 10983 10985 10986 10988 10989 10991 10992 10993 10995 10997 10998 11000 11002 11005 11007 11008 11009 11011 11011 11010 11009 11009 11008 11008 11009 11010 11011 11012 11012 11013 11013
10958 10960 10962 10964 10965 10967 10969 10972 10975 10977 10978 10979 10980 10981 10983 10984 10986 10987 10989 10992 10994 10995 10997 11000 11003 11005 11006 11007 11008 11009 11009 11008 11007 11007 11006 11006 11007 11008 11009 11010 11010 11011
10951 10953 10956 10958 10960 10961 10963 10965 10968 10971 10973 10973 10974 10975 10977 10978 10980 10982 10985 10987 10990 10993 10995 10997 11000 11003 11004 11005 11005 11006 11006 11005 11005 11005 11004 11004 11004 11005 11006 11006 11007 11008
10943 10945 10948 10951 10953 10955 10956 10958 10961 10964 10965 10966 10967 10968 10970 10972 10974 10977 10980 10983 10986 10989 10991 10994 10997 11000 11002 11002 11003 11002 11002 11002 11002 11001 11001 11001 11001 11002 11002 11003 11004 11005